Regional Weather Roundup
Issued by NWS Newport/Morehead, NC

Current Version | Previous Version | Text Only | Print | Product List | Glossary Off
Versions: 1 2 3 4 5 6 7 8 9 10 11 12 13 14 15 16 17 18 19 20 21 22 23 24 25 26 27 28 29 30 31 32 33 34 35 36 37 38 39 40 41 42 43 44 45 46 47 48 49 50
000 ASUS42 KMHX 282313 RWRMHX WEATHER ROUNDUP FOR EASTERN NORTH CAROLINA NATIONAL WEATHER SERVICE NEWPORT/MOREHEAD CITY NC 700 PM EDT THU APR 28 2016 NOTE: "FAIR" INDICATES FEW OR NO CLOUDS BELOW 12,000 FEET WITH NO SIGNIFICANT WEATHER AND/OR OBSTRUCTIONS TO VISIBILITY NCZ015>017-031-032-045>047-102-103-290000- NORTH COAST CITY SKY/WX TMP DP RH WIND PRES REMARKS EDENTON CLEAR 70 67 88 E9 29.86S ELIZABETH CITY CLEAR 67 63 87 NE12 29.87F KITTY HAWK CLOUDY 68 60 75 NE5 29.87S MANTEO NOT AVBL $$ NCZ045>047-081-094-103-104-290000- CENTRAL COAST CITY SKY/WX TMP DP RH WIND PRES REMARKS FRISCO CLOUDY 71 67 87 SW10 29.89R SWANQUARTER NOT AVBL $$ NCZ095-097-098-100-101-290000- SOUTHERN COAST CITY SKY/WX TMP DP RH WIND PRES REMARKS BEAUFORT CLEAR 71 67 87 SW20 29.88F CEDAR ISLAND NOT AVBL JACKSONVILLE MOCLDY 77 63 61 S10 29.86S PINEY ISLAND NOT AVBL WILMINGTON CLEAR 78 63 59 S16 29.89R $$ NCZ011>013-027>030-043-044-078>080-089-090>093-098-290000- COASTAL PLAIN CITY SKY/WX TMP DP RH WIND PRES REMARKS AHOSKIE CLOUDY 72 66 83 NE5 29.85S CLINTON CLOUDY 83 67 59 S6 29.83F ELIZABETHTOWN MOSUNNY 82 66 57 S8 29.86R GOLDSBORO CLOUDY 81 63 54 SW7 29.82R GREENVILLE CLOUDY 81 66 61 W3 29.85S HAVELOCK CLEAR 74 63 68 S17 29.87F KENANSVILLE CLOUDY 80 63 54 CALM 29.84F KINSTON CLOUDY 79 64 61 SW3 29.84S NEW BERN CLEAR 77 64 64 S12 29.86S RICHLANDS CLEAR 80 67 64 S10 29.85S ROCKY MOUNT CLOUDY 74 68 81 SE3 29.82F WASHINGTON PTCLDY 80 65 59 SW3 29.82F WHITEVILLE SUNNY 78 65 62 S13 29.88R $$ AMZ130-135-150-152-154-156-158-170-250-252-270-ANZ085-086-088-633-658-670-290000- MARINE OBSERVATIONS STATION/POSITION TIME TEMP WIND PRES WAVE SWELL AIR SEA DIR/SP/G HT/PER HT/PER (UTC) (F) (DEG/KT/KT) (MB) (FT/S) (FT/S) CHESAPEAKE LIGHT 2300 54 50/ 14/ 16 1013.0 64 E VA BEACH 2250 56 56 20/ 6/ 6 1012.3 3/ 6 2/ 6 DUCK 2200 61 68 1011.5 2 E DUCK 2211 58 N/A 2/10 OREGON INLET 2200 70 67 1011.4 13E OREGON INLT 2300 61 N/A 3/ 6 2/11 HATTERAS CG 2200 71 69 1011.8 DIAMOND BUOY 2250 74 72 210/ 17/ 21 1011.7 4/ 4 2/11 CAPE LOOKOUT 2300 70 210/ 11/ 14 1011.8 BEAUFORT LAB 2200 71 68 1011.2 30 SE NEW RVR IN 2225 67 N/A 4/ 6 27 SE WRIGHTSVLE 2208 72 69 210/ 12/ 16 1015.4 5 SE WRIGHTSVLE 2208 70 67 220/ 12/ 17 1012.6 225 S CAPE HAT 2250 72 71 170/ 8/ 10 1015.9 2/11 2/11 41 SE CHARLESTON 2250 72 71 190/ 8/ 12 1013.6 3/ 5 2/ 5 $$

USA.gov is the U.S. government's official web portal to all federal, state and local government web resources and services.